Time,TemperatureF,DewpointF,PressureIn,WindDirection,WindDirectionDegrees,WindSpeedMPH,WindSpeedGustMPH,Humidity,HourlyPrecipIn,Conditions,Clouds,dailyrainin,SolarRadiationWatts/m^2,SoftwareType,DateUTC
2013-06-17 00:00:00,75.1,71.3,29.92,SSE,167,0.0,2.0,88,0.00,,---,0.00,0.00,VWS V14.00,2013-06-17 05:00:00,
2013-06-17 00:01:00,75.1,71.3,29.92,SSE,167,0.0,0.0,88,0.00,,---,0.00,0.00,VWS V14.00,2013-06-17 05:01:00,
2013-06-17 00:06:00,75.1,71.3,29.92,SSE,167,0.0,0.0,88,0.00,,---,0.00,0.00,VWS V14.00,2013-06-17 05:06:00,
2013-06-17 00:11:00,75.2,71.4,29.93,SSE,167,0.0,0.0,88,0.00,,---,0.00,0.00,VWS V14.00,2013-06-17 05:11:00,
2013-06-17 00:16:00,75.3,71.5,29.93,SSE,167,0.0,0.0,88,0.00,,---,0.00,0.00,VWS V14.00,2013-06-17 05:16:00,
2013-06-17 00:21:00,75.3,71.5,29.93,SSE,167,0.0,0.0,88,0.00,,---,0.00,0.00,VWS V14.00,2013-06-17 05:21:00,
2013-06-17 00:26:00,75.3,71.5,29.93,SSE,167,0.0,0.0,88,0.00,,---,0.00,0.00,VWS V14.00,2013-06-17 05:26:00,
2013-06-17 00:30:00,75.3,71.5,29.93,SSE,167,0.0,0.0,88,0.00,,---,0.00,0.00,VWS V14.00,2013-06-17 05:30:00,
2013-06-17 00:31:00,75.2,71.1,29.93,SSE,167,0.0,0.0,87,0.00,,---,0.00,0.00,VWS V14.00,2013-06-17 05:31:00,
2013-06-17 00:36:00,75.1,71.3,29.93,SSE,167,0.0,0.0,88,0.00,,---,0.00,0.00,VWS V14.00,2013-06-17 05:36:00,
2013-06-17 00:41:00,75.0,71.2,29.93,SSE,167,0.0,0.0,88,0.00,,---,0.00,0.00,VWS V14.00,2013-06-17 05:41:00,
2013-06-17 00:46:00,75.0,71.2,29.92,SSE,167,0.0,0.0,88,0.00,,---,0.00,0.00,VWS V14.00,2013-06-17 05:46:00,
2013-06-17 00:51:00,74.7,70.9,29.92,SSE,167,0.0,0.0,88,0.00,,---,0.00,0.00,VWS V14.00,2013-06-17 05:51:00,
2013-06-17 00:56:00,74.4,70.9,29.92,SSE,167,0.0,0.0,89,0.00,,---,0.00,0.00,VWS V14.00,2013-06-17 05:56:00,
2013-06-17 01:00:00,74.4,70.6,29.92,SSE,167,0.0,0.0,88,0.00,,---,0.00,0.00,VWS V14.00,2013-06-17 06:00:00,
2013-06-17 01:01:00,74.2,70.4,29.92,SSE,167,0.0,0.0,88,0.00,,---,0.00,0.00,VWS V14.00,2013-06-17 06:01:00,
2013-06-17 01:06:00,74.0,70.6,29.92,SSE,167,0.0,0.0,89,0.00,,---,0.00,0.00,VWS V14.00,2013-06-17 06:06:00,
2013-06-17 01:11:00,73.8,70.4,29.92,SSE,167,0.0,0.0,89,0.00,,---,0.00,0.00,VWS V14.00,2013-06-17 06:11:00,
2013-06-17 01:16:00,73.8,70.7,29.92,SSE,167,0.0,0.0,90,0.00,,---,0.00,0.00,VWS V14.00,2013-06-17 06:16:00,
2013-06-17 01:21:00,73.7,70.6,29.92,SSE,167,0.0,0.0,90,0.00,,---,0.00,0.00,VWS V14.00,2013-06-17 06:21:00,
2013-06-17 01:26:00,73.6,70.8,29.92,SSE,167,0.0,0.0,91,0.00,,---,0.00,0.00,VWS V14.00,2013-06-17 06:26:00,
2013-06-17 01:30:00,73.6,70.8,29.92,SSE,167,0.0,0.0,91,0.00,,---,0.00,0.00,VWS V14.00,2013-06-17 06:30:00,
2013-06-17 01:31:00,73.5,70.7,29.92,SSE,167,0.0,0.0,91,0.00,,---,0.00,0.00,VWS V14.00,2013-06-17 06:31:00,
2013-06-17 01:36:00,73.5,70.7,29.92,SSE,167,0.0,0.0,91,0.00,,---,0.00,0.00,VWS V14.00,2013-06-17 06:36:00,
2013-06-17 01:41:00,73.5,70.7,29.92,SSE,167,0.0,0.0,91,0.00,,---,0.00,0.00,VWS V14.00,2013-06-17 06:41:00,
2013-06-17 01:46:00,73.4,70.6,29.91,SSE,167,0.0,0.0,91,0.00,,---,0.00,0.00,VWS V14.00,2013-06-17 06:46:00,
2013-06-17 01:51:00,73.3,70.2,29.92,SSE,167,0.0,0.0,90,0.00,,---,0.00,0.00,VWS V14.00,2013-06-17 06:51:00,
2013-06-17 01:56:00,73.2,70.4,29.92,SSE,167,0.0,0.0,91,0.00,,---,0.00,0.00,VWS V14.00,2013-06-17 06:56:00,
2013-06-17 02:00:00,73.2,70.4,29.92,SSE,167,0.0,0.0,91,0.00,,---,0.00,0.00,VWS V14.00,2013-06-17 07:00:00,
2013-06-17 02:01:00,73.1,70.3,29.91,SSE,167,0.0,0.0,91,0.00,,---,0.00,0.00,VWS V14.00,2013-06-17 07:01:00,
2013-06-17 02:06:00,73.1,70.3,29.92,SSE,167,0.0,0.0,91,0.00,,---,0.00,0.00,VWS V14.00,2013-06-17 07:06:00,
2013-06-17 02:11:00,73.1,70.3,29.92,SSE,167,0.0,0.0,91,0.00,,---,0.00,0.00,VWS V14.00,2013-06-17 07:11:00,
2013-06-17 02:16:00,73.2,70.4,29.91,SSE,167,0.0,0.0,91,0.00,,---,0.00,0.00,VWS V14.00,2013-06-17 07:16:00,
2013-06-17 02:21:00,73.3,70.8,29.91,SSE,167,0.0,0.0,92,0.00,,---,0.00,0.00,VWS V14.00,2013-06-17 07:21:00,
2013-06-17 02:26:00,73.3,70.8,29.91,SSE,167,0.0,1.0,92,0.00,,---,0.00,0.00,VWS V14.00,2013-06-17 07:26:00,
2013-06-17 02:30:00,73.4,70.9,29.91,SSE,167,0.0,1.0,92,0.00,,---,0.00,0.00,VWS V14.00,2013-06-17 07:30:00,
2013-06-17 02:31:00,73.5,71.0,29.91,SSE,167,0.0,0.0,92,0.00,,---,0.00,0.00,VWS V14.00,2013-06-17 07:31:00,
2013-06-17 02:36:00,73.6,71.1,29.91,SSE,167,0.0,1.0,92,0.00,,---,0.00,0.00,VWS V14.00,2013-06-17 07:36:00,
2013-06-17 02:41:00,73.7,71.2,29.91,SSE,167,0.0,1.0,92,0.00,,---,0.00,0.00,VWS V14.00,2013-06-17 07:41:00,
2013-06-17 02:46:00,73.7,71.2,29.91,SSE,167,0.0,1.0,92,0.00,,---,0.00,0.00,VWS V14.00,2013-06-17 07:46:00,
2013-06-17 02:51:00,73.7,71.2,29.91,SSE,167,0.0,1.0,92,0.00,,---,0.00,0.00,VWS V14.00,2013-06-17 07:51:00,
2013-06-17 02:56:00,73.8,71.3,29.91,SSE,167,0.0,1.0,92,0.00,,---,0.00,0.00,VWS V14.00,2013-06-17 07:56:00,
2013-06-17 03:00:00,73.8,71.3,29.91,SSE,167,0.0,1.0,92,0.00,,---,0.00,0.00,VWS V14.00,2013-06-17 08:00:00,
2013-06-17 03:01:00,74.0,71.5,29.91,SSE,167,0.0,0.0,92,0.00,,---,0.00,0.00,VWS V14.00,2013-06-17 08:01:00,
2013-06-17 03:06:00,74.1,71.6,29.92,SSE,167,0.0,0.0,92,0.00,,---,0.00,0.00,VWS V14.00,2013-06-17 08:06:00,
2013-06-17 03:11:00,74.2,71.7,29.92,South,190,0.0,6.0,92,0.00,,---,0.00,0.00,VWS V14.00,2013-06-17 08:11:00,
2013-06-17 03:16:00,74.3,71.5,29.91,South,190,0.0,6.0,91,0.00,,---,0.00,0.00,VWS V14.00,2013-06-17 08:16:00,
2013-06-17 03:21:00,74.4,71.6,29.91,South,190,0.0,6.0,91,0.00,,---,0.00,0.00,VWS V14.00,2013-06-17 08:21:00,
2013-06-17 03:26:00,74.3,71.5,29.92,South,190,0.0,6.0,91,0.00,,---,0.00,0.00,VWS V14.00,2013-06-17 08:26:00,
2013-06-17 03:30:00,74.3,71.5,29.92,South,190,2.0,6.0,91,0.00,,---,0.00,0.00,VWS V14.00,2013-06-17 08:30:00,
2013-06-17 03:31:00,74.3,71.5,29.91,SSW,192,0.0,3.0,91,0.00,,---,0.00,0.00,VWS V14.00,2013-06-17 08:31:00,
2013-06-17 03:36:00,74.3,71.5,29.91,SSW,193,0.0,3.0,91,0.00,,---,0.00,0.00,VWS V14.00,2013-06-17 08:36:00,
2013-06-17 03:41:00,74.3,71.5,29.91,SSW,193,0.0,3.0,91,0.00,,---,0.00,0.00,VWS V14.00,2013-06-17 08:41:00,
2013-06-17 03:46:00,74.3,71.5,29.91,SSW,194,0.0,4.0,91,0.00,,---,0.00,0.00,VWS V14.00,2013-06-17 08:46:00,
2013-06-17 03:51:00,74.3,71.5,29.92,SSW,194,0.0,4.0,91,0.00,,---,0.00,0.00,VWS V14.00,2013-06-17 08:51:00,
2013-06-17 03:56:00,74.2,71.4,29.91,SSW,194,0.0,4.0,91,0.00,,---,0.00,0.00,VWS V14.00,2013-06-17 08:56:00,
2013-06-17 04:00:00,74.2,71.4,29.91,SSW,194,0.0,4.0,91,0.00,,---,0.00,0.00,VWS V14.00,2013-06-17 09:00:00,
2013-06-17 04:01:00,74.2,71.4,29.91,SSW,194,0.0,1.0,91,0.00,,---,0.00,0.00,VWS V14.00,2013-06-17 09:01:00,
2013-06-17 04:06:00,74.3,71.5,29.91,SSW,198,0.0,1.0,91,0.00,,---,0.00,0.00,VWS V14.00,2013-06-17 09:06:00,
2013-06-17 04:11:00,74.3,71.5,29.91,SSW,198,0.0,1.0,91,0.00,,---,0.00,0.00,VWS V14.00,2013-06-17 09:11:00,
2013-06-17 04:16:00,74.3,71.5,29.90,SSW,198,0.0,1.0,91,0.00,,---,0.00,0.00,VWS V14.00,2013-06-17 09:16:00,
2013-06-17 04:21:00,74.3,71.5,29.90,SSW,198,0.0,1.0,91,0.00,,---,0.00,0.00,VWS V14.00,2013-06-17 09:21:00,
2013-06-17 04:26:00,74.3,71.5,29.90,SSW,198,0.0,1.0,91,0.00,,---,0.00,0.00,VWS V14.00,2013-06-17 09:26:00,
2013-06-17 04:30:00,74.3,71.5,29.90,SSW,198,0.0,1.0,91,0.00,,---,0.00,0.00,VWS V14.00,2013-06-17 09:30:00,
2013-06-17 04:31:00,74.2,71.4,29.90,SSW,198,0.0,0.0,91,0.00,,---,0.00,0.00,VWS V14.00,2013-06-17 09:31:00,
2013-06-17 04:36:00,74.2,71.4,29.90,SSW,198,0.0,0.0,91,0.00,,---,0.00,0.00,VWS V14.00,2013-06-17 09:36:00,
2013-06-17 04:41:00,74.2,71.4,29.90,SSW,198,0.0,0.0,91,0.00,,---,0.00,0.00,VWS V14.00,2013-06-17 09:41:00,
2013-06-17 04:46:00,74.1,71.3,29.89,SSW,198,0.0,0.0,91,0.00,,---,0.00,0.00,VWS V14.00,2013-06-17 09:46:00,
2013-06-17 04:51:00,74.0,71.2,29.90,SSW,198,0.0,0.0,91,0.00,,---,0.00,0.00,VWS V14.00,2013-06-17 09:51:00,
2013-06-17 04:56:00,74.0,71.2,29.90,SSW,198,0.0,0.0,91,0.00,,---,0.00,0.00,VWS V14.00,2013-06-17 09:56:00,
2013-06-17 05:00:00,74.0,71.2,29.90,SSW,198,0.0,0.0,91,0.00,,---,0.00,0.00,VWS V14.00,2013-06-17 10:00:00,
2013-06-17 05:01:00,73.9,71.1,29.90,SSW,198,0.0,0.0,91,0.00,,---,0.00,0.00,VWS V14.00,2013-06-17 10:01:00,
2013-06-17 05:06:00,73.8,71.0,29.90,SSW,198,0.0,0.0,91,0.00,,---,0.00,0.00,VWS V14.00,2013-06-17 10:06:00,
2013-06-17 05:11:00,73.7,70.9,29.90,SSW,198,0.0,0.0,91,0.00,,---,0.00,0.00,VWS V14.00,2013-06-17 10:11:00,
2013-06-17 05:16:00,73.7,70.9,29.90,SSW,198,0.0,0.0,91,0.00,,---,0.00,0.00,VWS V14.00,2013-06-17 10:16:00,
2013-06-17 05:21:00,73.6,71.1,29.89,SSW,198,0.0,0.0,92,0.00,,---,0.00,0.00,VWS V14.00,2013-06-17 10:21:00,
2013-06-17 05:25:00,73.6,71.1,29.89,SSW,198,0.0,0.0,92,0.00,,---,0.00,0.00,VWS V14.00,2013-06-17 10:25:00,
2013-06-17 05:30:00,73.5,71.0,29.89,SSW,198,0.0,0.0,92,0.00,,---,0.00,0.00,VWS V14.00,2013-06-17 10:30:00,
2013-06-17 05:35:00,73.4,70.9,29.89,SSW,198,0.0,0.0,92,0.00,,---,0.00,0.00,VWS V14.00,2013-06-17 10:35:00,
2013-06-17 05:40:00,73.3,70.8,29.89,SSW,198,0.0,0.0,92,0.00,,---,0.00,0.00,VWS V14.00,2013-06-17 10:40:00,
2013-06-17 05:45:00,73.3,70.8,29.89,SSW,198,0.0,0.0,92,0.00,,---,0.00,5.00,VWS V14.00,2013-06-17 10:45:00,
2013-06-17 05:50:00,73.3,71.2,29.90,SSW,198,0.0,0.0,93,0.00,,---,0.00,9.00,VWS V14.00,2013-06-17 10:50:00,
2013-06-17 05:55:00,73.2,70.7,29.90,SSW,198,0.0,0.0,92,0.00,,---,0.00,14.00,VWS V14.00,2013-06-17 10:55:00,
2013-06-17 06:00:00,73.0,70.5,29.90,SSW,198,0.0,0.0,92,0.00,,---,0.00,16.00,VWS V14.00,2013-06-17 11:00:00,
2013-06-17 06:05:00,73.0,70.5,29.90,SSW,198,0.0,0.0,92,0.00,,---,0.00,16.00,VWS V14.00,2013-06-17 11:05:00,
2013-06-17 06:10:00,72.9,70.4,29.90,SSW,198,0.0,0.0,92,0.00,,---,0.00,19.00,VWS V14.00,2013-06-17 11:10:00,
2013-06-17 06:15:00,72.9,70.8,29.90,SSW,198,0.0,0.0,93,0.00,,---,0.00,19.00,VWS V14.00,2013-06-17 11:15:00,
2013-06-17 06:20:00,72.9,70.8,29.91,SSW,198,0.0,0.0,93,0.00,,---,0.00,18.00,VWS V14.00,2013-06-17 11:20:00,
2013-06-17 06:25:00,72.9,70.8,29.90,SSW,198,0.0,0.0,93,0.00,,---,0.00,16.00,VWS V14.00,2013-06-17 11:25:00,
2013-06-17 06:30:00,72.8,70.7,29.90,SSW,198,0.0,0.0,93,0.00,,---,0.00,21.00,VWS V14.00,2013-06-17 11:30:00,
2013-06-17 06:35:00,72.8,70.7,29.90,SSW,198,0.0,0.0,93,0.00,,---,0.00,25.00,VWS V14.00,2013-06-17 11:35:00,
2013-06-17 06:40:00,72.9,71.1,29.89,SSW,198,0.0,0.0,94,0.00,,---,0.00,33.00,VWS V14.00,2013-06-17 11:40:00,
2013-06-17 06:45:00,73.0,71.2,29.89,SSW,198,0.0,0.0,94,0.00,,---,0.00,49.00,VWS V14.00,2013-06-17 11:45:00,
2013-06-17 06:50:00,73.0,71.2,29.89,SSW,198,0.0,0.0,94,0.00,,---,0.00,56.00,VWS V14.00,2013-06-17 11:50:00,
2013-06-17 06:55:00,73.1,71.3,29.89,SSW,198,0.0,0.0,94,0.00,,---,0.00,60.00,VWS V14.00,2013-06-17 11:55:00,
2013-06-17 07:00:00,73.2,71.4,29.89,SSW,198,0.0,0.0,94,0.00,,---,0.00,54.00,VWS V14.00,2013-06-17 12:00:00,
2013-06-17 07:05:00,73.3,71.5,29.89,SSW,198,0.0,0.0,94,0.00,,---,0.00,63.00,VWS V14.00,2013-06-17 12:05:00,
2013-06-17 07:10:00,73.5,71.4,29.90,SSW,198,0.0,0.0,93,0.00,,---,0.00,69.00,VWS V14.00,2013-06-17 12:10:00,
2013-06-17 07:15:00,73.6,71.8,29.90,SSW,198,0.0,0.0,94,0.00,,---,0.00,88.00,VWS V14.00,2013-06-17 12:15:00,
2013-06-17 07:20:00,73.8,72.0,29.90,SSW,198,0.0,0.0,94,0.00,,---,0.00,86.00,VWS V14.00,2013-06-17 12:20:00,
2013-06-17 07:25:00,74.1,71.9,29.90,SSW,198,0.0,0.0,93,0.00,,---,0.00,83.00,VWS V14.00,2013-06-17 12:25:00,
2013-06-17 07:30:00,74.3,72.2,29.90,SSW,198,0.0,0.0,93,0.00,,---,0.00,70.00,VWS V14.00,2013-06-17 12:30:00,
2013-06-17 07:35:00,74.5,72.3,29.90,South,186,0.0,0.0,93,0.00,,---,0.00,65.00,VWS V14.00,2013-06-17 12:35:00,
2013-06-17 07:40:00,74.6,72.1,29.90,South,185,0.0,3.0,92,0.00,,---,0.00,60.00,VWS V14.00,2013-06-17 12:40:00,
2013-06-17 07:45:00,74.8,72.3,29.90,South,185,0.0,3.0,92,0.00,,---,0.00,63.00,VWS V14.00,2013-06-17 12:45:00,
2013-06-17 07:50:00,75.0,72.2,29.91,South,185,0.0,3.0,91,0.00,,---,0.00,70.00,VWS V14.00,2013-06-17 12:50:00,
2013-06-17 07:55:00,75.1,72.3,29.90,South,170,0.0,4.0,91,0.00,,---,0.00,88.00,VWS V14.00,2013-06-17 12:55:00,
2013-06-17 08:00:00,75.2,72.4,29.91,South,174,0.0,3.0,91,0.00,,---,0.00,104.00,VWS V14.00,2013-06-17 13:00:00,
2013-06-17 08:05:00,75.2,72.4,29.90,SSE,162,0.0,3.0,91,0.00,,---,0.00,118.00,VWS V14.00,2013-06-17 13:05:00,
2013-06-17 08:10:00,75.2,72.1,29.90,SSE,162,0.0,3.0,90,0.00,,---,0.00,123.00,VWS V14.00,2013-06-17 13:10:00,
2013-06-17 08:15:00,75.2,72.1,29.90,SSE,162,0.0,3.0,90,0.00,,---,0.00,121.00,VWS V14.00,2013-06-17 13:15:00,
2013-06-17 08:20:00,75.2,72.1,29.90,SSE,162,0.0,3.0,90,0.00,,---,0.00,100.00,VWS V14.00,2013-06-17 13:20:00,
2013-06-17 08:25:00,75.3,71.8,29.90,SSE,162,0.0,3.0,89,0.00,,---,0.00,86.00,VWS V14.00,2013-06-17 13:25:00,
2013-06-17 08:30:00,75.4,72.3,29.90,SSE,162,0.0,0.0,90,0.00,,---,0.00,90.00,VWS V14.00,2013-06-17 13:30:00,
2013-06-17 08:35:00,75.4,71.9,29.90,SSE,162,0.0,0.0,89,0.00,,---,0.00,97.00,VWS V14.00,2013-06-17 13:35:00,
2013-06-17 08:40:00,75.3,71.8,29.91,SSE,162,0.0,0.0,89,0.00,,---,0.00,90.00,VWS V14.00,2013-06-17 13:40:00,
2013-06-17 08:45:00,75.3,72.2,29.91,SSE,162,0.0,0.0,90,0.00,,---,0.00,74.00,VWS V14.00,2013-06-17 13:45:00,
2013-06-17 08:50:00,75.3,71.8,29.91,SSE,162,0.0,1.0,89,0.00,,---,0.00,49.00,VWS V14.00,2013-06-17 13:50:00,
2013-06-17 08:55:00,75.3,71.8,29.92,SSE,165,4.0,4.0,89,0.00,,---,0.00,26.00,VWS V14.00,2013-06-17 13:55:00,
2013-06-17 09:00:00,75.1,72.0,29.92,South,170,1.0,3.0,90,0.00,,---,0.01,19.00,VWS V14.00,2013-06-17 14:00:00,
2013-06-17 09:05:00,74.6,71.5,29.93,SSW,213,0.0,10.0,90,0.10,,---,0.02,21.00,VWS V14.00,2013-06-17 14:05:00,
2013-06-17 09:10:00,74.0,71.2,29.94,SSW,198,0.0,10.0,91,0.09,,---,0.03,33.00,VWS V14.00,2013-06-17 14:10:00,
2013-06-17 09:15:00,73.8,71.3,29.94,SSE,155,4.0,10.0,92,0.09,,---,0.03,44.00,VWS V14.00,2013-06-17 14:15:00,
2013-06-17 09:20:00,73.8,71.7,29.94,SSE,153,5.0,10.0,93,0.05,,---,0.03,53.00,VWS V14.00,2013-06-17 14:20:00,
2013-06-17 09:25:00,73.8,71.7,29.94,SE,124,0.0,10.0,93,0.04,,---,0.03,58.00,VWS V14.00,2013-06-17 14:25:00,
2013-06-17 09:30:00,73.8,71.7,29.94,SE,140,0.0,6.0,93,0.00,,---,0.03,51.00,VWS V14.00,2013-06-17 14:30:00,
2013-06-17 09:35:00,73.8,71.7,29.94,South,173,3.0,6.0,93,0.00,,---,0.03,46.00,VWS V14.00,2013-06-17 14:35:00,
2013-06-17 09:40:00,73.8,72.0,29.94,SSE,157,2.0,9.0,94,0.00,,---,0.03,60.00,VWS V14.00,2013-06-17 14:40:00,
2013-06-17 09:45:00,73.9,72.1,29.94,SE,142,4.0,9.0,94,0.00,,---,0.04,70.00,VWS V14.00,2013-06-17 14:45:00,
2013-06-17 09:50:00,74.0,72.2,29.94,SSE,153,0.0,9.0,94,0.00,,---,0.04,90.00,VWS V14.00,2013-06-17 14:50:00,
2013-06-17 09:55:00,74.1,72.3,29.94,SSE,155,4.0,9.0,94,0.05,,---,0.05,104.00,VWS V14.00,2013-06-17 14:55:00,
2013-06-17 10:00:00,74.3,72.8,29.93,ESE,115,6.0,10.0,95,0.05,,---,0.05,114.00,VWS V14.00,2013-06-17 15:00:00,
2013-06-17 10:05:00,74.4,72.9,29.93,SSE,154,0.0,10.0,95,0.07,,---,0.06,134.00,VWS V14.00,2013-06-17 15:05:00,
2013-06-17 10:10:00,74.5,73.0,29.93,SSE,149,0.0,10.0,95,0.07,,---,0.06,155.00,VWS V14.00,2013-06-17 15:10:00,
2013-06-17 10:15:00,74.6,73.1,29.94,South,171,1.0,10.0,95,0.06,,---,0.07,202.00,VWS V14.00,2013-06-17 15:15:00,
2013-06-17 10:20:00,74.7,73.2,29.94,South,178,1.0,10.0,95,0.06,,---,0.07,229.00,VWS V14.00,2013-06-17 15:20:00,
2013-06-17 10:25:00,74.9,73.4,29.94,South,173,6.0,12.0,95,0.05,,---,0.07,209.00,VWS V14.00,2013-06-17 15:25:00,
2013-06-17 10:30:00,75.0,73.5,29.95,SSE,158,5.0,10.0,95,0.04,,---,0.07,199.00,VWS V14.00,2013-06-17 15:30:00,
2013-06-17 10:35:00,74.9,73.4,29.95,SSW,206,4.0,12.0,95,0.00,,---,0.07,127.00,VWS V14.00,2013-06-17 15:35:00,
2013-06-17 10:40:00,74.6,72.8,29.96,SW,228,6.0,12.0,94,0.00,,---,0.07,90.00,VWS V14.00,2013-06-17 15:40:00,
2013-06-17 10:45:00,74.5,72.7,29.97,SW,232,0.0,12.0,94,0.00,,---,0.07,40.00,VWS V14.00,2013-06-17 15:45:00,
2013-06-17 10:50:00,74.4,72.6,29.97,WSW,243,3.0,12.0,94,0.00,,---,0.08,32.00,VWS V14.00,2013-06-17 15:50:00,
2013-06-17 10:55:00,74.0,72.2,29.96,SSW,200,0.0,12.0,94,0.28,,---,0.10,44.00,VWS V14.00,2013-06-17 15:55:00,
2013-06-17 11:00:00,73.8,72.0,29.96,South,190,2.0,6.0,94,0.39,,---,0.13,49.00,VWS V14.00,2013-06-17 16:00:00,
2013-06-17 11:05:00,73.7,71.9,29.96,SSW,196,0.0,7.0,94,0.36,,---,0.17,63.00,VWS V14.00,2013-06-17 16:05:00,
2013-06-17 11:10:00,73.5,71.7,29.96,South,178,0.0,7.0,94,0.29,,---,0.19,88.00,VWS V14.00,2013-06-17 16:10:00,
2013-06-17 11:15:00,73.5,71.7,29.96,SSE,166,5.0,10.0,94,0.11,,---,0.20,91.00,VWS V14.00,2013-06-17 16:15:00,
2013-06-17 11:20:00,73.4,71.9,29.96,SSE,165,0.0,10.0,95,0.17,,---,0.21,83.00,VWS V14.00,2013-06-17 16:20:00,
2013-06-17 11:25:00,73.5,72.0,29.96,South,188,0.0,10.0,95,0.09,,---,0.21,69.00,VWS V14.00,2013-06-17 16:25:00,
2013-06-17 11:30:00,73.5,72.0,29.97,SSW,211,5.0,9.0,95,0.30,,---,0.24,60.00,VWS V14.00,2013-06-17 16:30:00,
2013-06-17 11:35:00,73.2,71.7,29.97,SSW,197,10.0,12.0,95,0.21,,---,0.26,69.00,VWS V14.00,2013-06-17 16:35:00,
2013-06-17 11:41:00,73.1,71.6,29.97,SSE,166,2.0,12.0,95,0.21,,---,0.27,76.00,VWS V14.00,2013-06-17 16:41:00,
2013-06-17 11:46:00,73.1,71.6,29.97,South,185,2.0,12.0,95,0.08,,---,0.27,72.00,VWS V14.00,2013-06-17 16:46:00,
2013-06-17 11:51:00,73.1,71.6,29.96,SSW,198,1.0,12.0,95,0.05,,---,0.27,63.00,VWS V14.00,2013-06-17 16:51:00,
2013-06-17 11:56:00,73.0,71.5,29.96,SSW,200,7.0,12.0,95,0.34,,---,0.30,62.00,VWS V14.00,2013-06-17 16:56:00,
2013-06-17 12:00:00,73.0,71.5,29.96,SSE,163,2.0,13.0,95,0.40,,---,0.31,62.00,VWS V14.00,2013-06-17 17:00:00,
2013-06-17 12:01:00,73.0,71.5,29.95,South,175,9.0,10.0,95,0.31,,---,0.33,62.00,VWS V14.00,2013-06-17 17:01:00,
2013-06-17 12:06:00,72.7,71.2,29.95,South,176,5.0,11.0,95,0.16,,---,0.35,76.00,VWS V14.00,2013-06-17 17:06:00,
2013-06-17 12:11:00,72.4,70.9,29.95,South,186,4.0,15.0,95,0.35,,---,0.37,95.00,VWS V14.00,2013-06-17 17:11:00,
2013-06-17 12:16:00,72.2,70.7,29.94,South,179,8.0,15.0,95,0.20,,---,0.39,144.00,VWS V14.00,2013-06-17 17:16:00,
2013-06-17 12:21:00,72.4,71.2,29.94,SSE,156,0.0,15.0,96,0.10,,---,0.39,190.00,VWS V14.00,2013-06-17 17:21:00,
2013-06-17 12:26:00,72.6,71.4,29.94,SE,126,0.0,15.0,96,0.05,,---,0.39,241.00,VWS V14.00,2013-06-17 17:26:00,
2013-06-17 12:30:00,72.6,71.4,29.94,South,173,0.0,15.0,96,0.05,,---,0.39,251.00,VWS V14.00,2013-06-17 17:30:00,
2013-06-17 12:31:00,72.8,71.6,29.93,South,188,0.0,4.0,96,0.04,,---,0.39,323.00,VWS V14.00,2013-06-17 17:31:00,
2013-06-17 12:36:00,73.1,71.9,29.93,SE,136,0.0,4.0,96,0.00,,---,0.39,371.00,VWS V14.00,2013-06-17 17:36:00,
2013-06-17 12:41:00,73.3,72.1,29.92,SE,144,0.0,4.0,96,0.00,,---,0.39,323.00,VWS V14.00,2013-06-17 17:41:00,
2013-06-17 12:46:00,73.3,72.1,29.92,South,172,0.0,5.0,96,0.00,,---,0.39,243.00,VWS V14.00,2013-06-17 17:46:00,
2013-06-17 12:50:00,73.5,72.3,29.91,SE,143,0.0,5.0,96,0.00,,---,0.39,364.00,VWS V14.00,2013-06-17 17:50:00,
2013-06-17 12:55:00,74.1,73.2,29.90,ESE,116,0.0,5.0,97,0.00,,---,0.39,431.00,VWS V14.00,2013-06-17 17:55:00,
2013-06-17 13:00:00,74.6,73.7,29.90,ESE,116,0.0,0.0,97,0.00,,---,0.39,452.00,VWS V14.00,2013-06-17 18:00:00,
2013-06-17 13:05:00,75.1,74.2,29.89,ESE,116,0.0,0.0,97,0.00,,---,0.39,350.00,VWS V14.00,2013-06-17 18:05:00,
2013-06-17 13:10:00,75.6,74.7,29.89,ESE,116,0.0,0.0,97,0.00,,---,0.39,520.00,VWS V14.00,2013-06-17 18:10:00,
2013-06-17 13:15:00,76.4,75.5,29.89,ESE,115,0.0,0.0,97,0.00,,---,0.39,476.00,VWS V14.00,2013-06-17 18:15:00,
2013-06-17 13:20:00,76.9,76.0,29.88,ESE,105,0.0,0.0,97,0.00,,---,0.39,861.00,VWS V14.00,2013-06-17 18:20:00,
2013-06-17 13:25:00,77.5,76.6,29.88,ESE,105,0.0,0.0,97,0.00,,---,0.39,1002.00,VWS V14.00,2013-06-17 18:25:00,
2013-06-17 13:30:00,77.9,77.0,29.87,ESE,105,0.0,0.0,97,0.00,,---,0.39,1239.00,VWS V14.00,2013-06-17 18:30:00,
2013-06-17 13:35:00,78.3,77.1,29.87,SSW,204,0.0,0.0,96,0.00,,---,0.39,1090.00,VWS V14.00,2013-06-17 18:35:00,
2013-06-17 13:40:00,78.5,76.6,29.86,SSW,204,0.0,0.0,94,0.00,,---,0.39,603.00,VWS V14.00,2013-06-17 18:40:00,
2013-06-17 13:45:00,78.4,75.9,29.86,SSW,204,0.0,0.0,92,0.00,,---,0.39,911.00,VWS V14.00,2013-06-17 18:45:00,
2013-06-17 13:50:00,78.5,75.3,29.85,South,184,0.0,3.0,90,0.00,,---,0.39,425.00,VWS V14.00,2013-06-17 18:50:00,
2013-06-17 13:55:00,78.8,75.3,29.85,South,184,0.0,3.0,89,0.00,,---,0.39,401.00,VWS V14.00,2013-06-17 18:55:00,
2013-06-17 14:00:00,79.2,75.3,29.85,SSW,192,0.0,4.0,88,0.00,,---,0.39,415.00,VWS V14.00,2013-06-17 19:00:00,
2013-06-17 14:05:00,79.4,75.2,29.85,SW,224,0.0,4.0,87,0.00,,---,0.39,415.00,VWS V14.00,2013-06-17 19:05:00,
2013-06-17 14:10:00,79.5,75.3,29.85,SW,226,0.0,4.0,87,0.00,,---,0.39,482.00,VWS V14.00,2013-06-17 19:10:00,
2013-06-17 14:15:00,79.8,75.9,29.85,SSW,194,0.0,5.0,88,0.00,,---,0.39,476.00,VWS V14.00,2013-06-17 19:15:00,
2013-06-17 14:20:00,80.0,76.1,29.86,SSW,197,0.0,5.0,88,0.00,,---,0.39,392.00,VWS V14.00,2013-06-17 19:20:00,
2013-06-17 14:25:00,80.2,76.3,29.86,SSW,209,0.0,5.0,88,0.00,,---,0.39,381.00,VWS V14.00,2013-06-17 19:25:00,
2013-06-17 14:30:00,80.1,75.2,29.87,SSW,193,0.0,10.0,85,0.00,,---,0.39,385.00,VWS V14.00,2013-06-17 19:30:00,
2013-06-17 14:35:00,80.1,75.5,29.86,SSW,198,0.0,10.0,86,0.00,,---,0.39,566.00,VWS V14.00,2013-06-17 19:35:00,
2013-06-17 14:40:00,80.4,75.5,29.85,SW,232,0.0,10.0,85,0.00,,---,0.39,715.00,VWS V14.00,2013-06-17 19:40:00,
2013-06-17 14:45:00,80.7,75.1,29.85,SSW,197,0.0,10.0,83,0.00,,---,0.39,591.00,VWS V14.00,2013-06-17 19:45:00,
2013-06-17 14:50:00,80.6,75.3,29.85,South,181,0.0,10.0,84,0.00,,---,0.39,403.00,VWS V14.00,2013-06-17 19:50:00,
2013-06-17 14:55:00,80.6,75.3,29.86,SW,234,0.0,10.0,84,0.00,,---,0.39,341.00,VWS V14.00,2013-06-17 19:55:00,
2013-06-17 15:00:00,80.7,75.8,29.86,SSW,205,0.0,0.0,85,0.00,,---,0.39,304.00,VWS V14.00,2013-06-17 20:00:00,
2013-06-17 15:05:00,80.8,75.9,29.86,SW,231,0.0,4.0,85,0.00,,---,0.39,269.00,VWS V14.00,2013-06-17 20:05:00,
2013-06-17 15:10:00,80.8,75.9,29.86,SSW,194,0.0,4.0,85,0.00,,---,0.39,236.00,VWS V14.00,2013-06-17 20:10:00,
2013-06-17 15:15:00,80.9,76.0,29.86,SSW,197,0.0,4.0,85,0.00,,---,0.39,214.00,VWS V14.00,2013-06-17 20:15:00,
2013-06-17 15:20:00,80.8,75.9,29.86,SSW,207,0.0,4.0,85,0.00,,---,0.39,188.00,VWS V14.00,2013-06-17 20:20:00,
2013-06-17 15:25:00,80.8,75.9,29.86,SSW,196,0.0,5.0,85,0.00,,---,0.39,171.00,VWS V14.00,2013-06-17 20:25:00,
2013-06-17 15:30:00,80.7,75.8,29.86,SSW,196,0.0,0.0,85,0.00,,---,0.39,153.00,VWS V14.00,2013-06-17 20:30:00,
2013-06-17 15:35:00,80.6,76.0,29.86,SSW,196,0.0,0.0,86,0.00,,---,0.39,146.00,VWS V14.00,2013-06-17 20:35:00,
2013-06-17 15:40:00,80.6,76.0,29.86,SSW,196,0.0,0.0,86,0.00,,---,0.39,137.00,VWS V14.00,2013-06-17 20:40:00,
2013-06-17 15:45:00,80.5,75.9,29.85,SSW,194,0.0,0.0,86,0.00,,---,0.39,130.00,VWS V14.00,2013-06-17 20:45:00,
2013-06-17 15:50:00,80.3,75.7,29.85,SSW,194,0.0,0.0,86,0.00,,---,0.39,125.00,VWS V14.00,2013-06-17 20:50:00,
2013-06-17 15:55:00,80.3,76.1,29.86,SSW,194,0.0,0.0,87,0.00,,---,0.39,121.00,VWS V14.00,2013-06-17 20:55:00,
2013-06-17 16:00:00,80.2,76.0,29.86,SSW,194,0.0,0.0,87,0.00,,---,0.39,125.00,VWS V14.00,2013-06-17 21:00:00,
2013-06-17 16:05:00,80.2,76.0,29.86,SSW,194,0.0,0.0,87,0.00,,---,0.39,113.00,VWS V14.00,2013-06-17 21:05:00,
2013-06-17 16:10:00,80.2,76.0,29.86,SSW,195,0.0,1.0,87,0.00,,---,0.39,76.00,VWS V14.00,2013-06-17 21:10:00,
2013-06-17 16:15:00,80.0,75.8,29.86,WSW,244,0.0,5.0,87,0.00,,---,0.39,102.00,VWS V14.00,2013-06-17 21:15:00,
2013-06-17 16:20:00,79.9,76.0,29.86,SW,228,0.0,5.0,88,0.00,,---,0.39,104.00,VWS V14.00,2013-06-17 21:20:00,
2013-06-17 16:25:00,79.9,76.0,29.86,SW,214,0.0,5.0,88,0.00,,---,0.39,76.00,VWS V14.00,2013-06-17 21:25:00,
2013-06-17 16:30:00,79.8,75.6,29.86,SW,219,0.0,2.0,87,0.00,,---,0.39,77.00,VWS V14.00,2013-06-17 21:30:00,
2013-06-17 16:35:00,79.8,75.9,29.86,SW,219,0.0,2.0,88,0.00,,---,0.39,54.00,VWS V14.00,2013-06-17 21:35:00,
2013-06-17 16:40:00,79.8,75.9,29.86,SW,219,0.0,2.0,88,0.00,,---,0.39,84.00,VWS V14.00,2013-06-17 21:40:00,
2013-06-17 16:45:00,79.8,75.9,29.85,SW,219,0.0,2.0,88,0.00,,---,0.39,81.00,VWS V14.00,2013-06-17 21:45:00,
2013-06-17 16:50:00,79.8,75.9,29.85,SW,219,0.0,2.0,88,0.00,,---,0.39,84.00,VWS V14.00,2013-06-17 21:50:00,
2013-06-17 16:55:00,79.7,76.2,29.85,SW,219,0.0,2.0,89,0.00,,---,0.39,95.00,VWS V14.00,2013-06-17 21:55:00,
2013-06-17 17:00:00,79.8,76.3,29.85,SW,219,0.0,0.0,89,0.00,,---,0.40,84.00,VWS V14.00,2013-06-17 22:00:00,
2013-06-17 17:05:00,79.7,76.2,29.84,South,180,0.0,1.0,89,0.00,,---,0.40,84.00,VWS V14.00,2013-06-17 22:05:00,
2013-06-17 17:10:00,79.6,76.1,29.84,South,180,0.0,1.0,89,0.00,,---,0.40,84.00,VWS V14.00,2013-06-17 22:10:00,
2013-06-17 17:15:00,79.4,75.9,29.83,South,180,0.0,1.0,89,0.16,,---,0.42,97.00,VWS V14.00,2013-06-17 22:15:00,
2013-06-17 17:20:00,79.4,76.2,29.83,South,180,0.0,1.0,90,0.11,,---,0.42,169.00,VWS V14.00,2013-06-17 22:20:00,
2013-06-17 17:25:00,79.4,76.6,29.83,South,180,0.0,1.0,91,0.06,,---,0.42,204.00,VWS V14.00,2013-06-17 22:25:00,
2013-06-17 17:30:00,79.4,76.6,29.82,South,180,0.0,0.0,91,0.04,,---,0.42,181.00,VWS V14.00,2013-06-17 22:30:00,
2013-06-17 17:35:00,79.5,76.7,29.82,South,180,0.0,0.0,91,0.00,,---,0.42,190.00,VWS V14.00,2013-06-17 22:35:00,
2013-06-17 17:40:00,79.3,76.1,29.82,South,179,0.0,3.0,90,0.00,,---,0.42,165.00,VWS V14.00,2013-06-17 22:40:00,
2013-06-17 17:45:00,79.2,76.0,29.82,South,179,0.0,3.0,90,0.00,,---,0.42,146.00,VWS V14.00,2013-06-17 22:45:00,
2013-06-17 17:50:00,79.1,75.9,29.82,South,179,0.0,3.0,90,0.00,,---,0.42,144.00,VWS V14.00,2013-06-17 22:50:00,
2013-06-17 17:55:00,78.9,75.7,29.82,South,179,0.0,3.0,90,0.00,,---,0.42,113.00,VWS V14.00,2013-06-17 22:55:00,
2013-06-17 18:00:00,78.9,75.7,29.82,South,179,0.0,0.0,90,0.00,,---,0.42,98.00,VWS V14.00,2013-06-17 23:00:00,
2013-06-17 18:05:00,78.9,76.1,29.82,South,179,0.0,0.0,91,0.00,,---,0.42,84.00,VWS V14.00,2013-06-17 23:05:00,
2013-06-17 18:10:00,78.9,75.7,29.83,South,179,0.0,0.0,90,0.00,,---,0.42,113.00,VWS V14.00,2013-06-17 23:10:00,
2013-06-17 18:15:00,78.7,75.5,29.82,South,179,0.0,0.0,90,0.00,,---,0.42,146.00,VWS V14.00,2013-06-17 23:15:00,
2013-06-17 18:20:00,78.8,75.9,29.82,South,179,0.0,0.0,91,0.00,,---,0.42,169.00,VWS V14.00,2013-06-17 23:20:00,
2013-06-17 18:25:00,78.9,76.1,29.82,South,179,0.0,0.0,91,0.00,,---,0.42,144.00,VWS V14.00,2013-06-17 23:25:00,
2013-06-17 18:30:00,79.0,76.2,29.81,South,179,0.0,0.0,91,0.00,,---,0.42,91.00,VWS V14.00,2013-06-17 23:30:00,
2013-06-17 18:35:00,79.1,76.2,29.81,South,179,0.0,0.0,91,0.00,,---,0.42,98.00,VWS V14.00,2013-06-17 23:35:00,
2013-06-17 18:40:00,79.1,76.2,29.81,South,179,0.0,0.0,91,0.00,,---,0.42,69.00,VWS V14.00,2013-06-17 23:40:00,
2013-06-17 18:45:00,79.1,76.2,29.81,South,179,0.0,0.0,91,0.00,,---,0.42,76.00,VWS V14.00,2013-06-17 23:45:00,
2013-06-17 18:50:00,79.1,76.2,29.81,South,179,0.0,0.0,91,0.00,,---,0.42,62.00,VWS V14.00,2013-06-17 23:50:00,
2013-06-17 18:55:00,79.1,76.6,29.81,South,179,0.0,0.0,92,0.00,,---,0.43,33.00,VWS V14.00,2013-06-17 23:55:00,
2013-06-17 19:00:00,79.0,76.5,29.81,South,178,0.0,0.0,92,0.43,,---,0.46,37.00,VWS V14.00,2013-06-18 00:00:00,
2013-06-17 19:05:00,78.9,76.4,29.81,South,178,0.0,0.0,92,0.30,,---,0.48,54.00,VWS V14.00,2013-06-18 00:05:00,
2013-06-17 19:10:00,78.8,76.3,29.81,South,178,0.0,0.0,92,0.16,,---,0.49,69.00,VWS V14.00,2013-06-18 00:10:00,
2013-06-17 19:15:00,78.7,76.5,29.81,South,178,0.0,0.0,93,0.07,,---,0.49,65.00,VWS V14.00,2013-06-18 00:15:00,
2013-06-17 19:20:00,78.7,76.5,29.81,South,178,0.0,0.0,93,0.04,,---,0.49,58.00,VWS V14.00,2013-06-18 00:20:00,
2013-06-17 19:25:00,78.7,76.5,29.81,South,178,0.0,0.0,93,0.00,,---,0.49,56.00,VWS V14.00,2013-06-18 00:25:00,
2013-06-17 19:30:00,78.7,76.8,29.81,South,178,0.0,0.0,94,0.00,,---,0.49,54.00,VWS V14.00,2013-06-18 00:30:00,
2013-06-17 19:35:00,78.7,76.8,29.81,South,178,0.0,0.0,94,0.00,,---,0.49,51.00,VWS V14.00,2013-06-18 00:35:00,
2013-06-17 19:40:00,78.7,76.8,29.81,South,178,0.0,0.0,94,0.00,,---,0.49,39.00,VWS V14.00,2013-06-18 00:40:00,
2013-06-17 19:45:00,78.7,76.8,29.81,South,181,0.0,0.0,94,0.00,,---,0.49,28.00,VWS V14.00,2013-06-18 00:45:00,
2013-06-17 19:50:00,78.6,76.7,29.81,South,181,0.0,0.0,94,0.00,,---,0.49,21.00,VWS V14.00,2013-06-18 00:50:00,
2013-06-17 19:55:00,78.5,76.6,29.81,South,181,0.0,0.0,94,0.00,,---,0.49,14.00,VWS V14.00,2013-06-18 00:55:00,
2013-06-17 20:00:00,78.4,76.5,29.82,South,181,0.0,1.0,94,0.00,,---,0.49,9.00,VWS V14.00,2013-06-18 01:00:00,
2013-06-17 20:05:00,77.9,75.7,29.81,South,182,0.0,1.0,93,0.00,,---,0.49,5.00,VWS V14.00,2013-06-18 01:05:00,
2013-06-17 20:10:00,77.6,75.4,29.82,South,182,0.0,1.0,93,0.00,,---,0.49,0.00,VWS V14.00,2013-06-18 01:10:00,
2013-06-17 20:15:00,77.6,75.4,29.81,South,182,0.0,1.0,93,0.00,,---,0.49,0.00,VWS V14.00,2013-06-18 01:15:00,
2013-06-17 20:20:00,77.6,75.7,29.81,SSW,198,0.0,1.0,94,0.00,,---,0.49,0.00,VWS V14.00,2013-06-18 01:20:00,
2013-06-17 20:25:00,77.6,75.7,29.81,SSW,198,0.0,1.0,94,0.00,,---,0.49,0.00,VWS V14.00,2013-06-18 01:25:00,
2013-06-17 20:30:00,77.6,75.7,29.81,SSW,198,0.0,0.0,94,0.00,,---,0.49,0.00,VWS V14.00,2013-06-18 01:30:00,
2013-06-17 20:35:00,77.5,75.6,29.82,SSW,198,0.0,0.0,94,0.00,,---,0.49,0.00,VWS V14.00,2013-06-18 01:35:00,
2013-06-17 20:40:00,77.5,75.6,29.82,SSW,198,0.0,0.0,94,0.00,,---,0.49,0.00,VWS V14.00,2013-06-18 01:40:00,
2013-06-17 20:45:00,77.4,75.5,29.82,SSW,198,0.0,0.0,94,0.00,,---,0.49,0.00,VWS V14.00,2013-06-18 01:45:00,
2013-06-17 20:50:00,77.4,75.9,29.82,SSW,198,0.0,0.0,95,0.00,,---,0.49,0.00,VWS V14.00,2013-06-18 01:50:00,
2013-06-17 20:55:00,77.3,75.4,29.82,SSW,198,0.0,0.0,94,0.00,,---,0.49,0.00,VWS V14.00,2013-06-18 01:55:00,
2013-06-17 21:00:00,77.1,75.2,29.82,SSW,198,0.0,0.0,94,0.00,,---,0.49,0.00,VWS V14.00,2013-06-18 02:00:00,
2013-06-17 21:05:00,77.1,75.2,29.82,SSW,198,0.0,0.0,94,0.00,,---,0.49,0.00,VWS V14.00,2013-06-18 02:05:00,
2013-06-17 21:10:00,77.0,75.5,29.82,SSW,198,0.0,0.0,95,0.00,,---,0.49,0.00,VWS V14.00,2013-06-18 02:10:00,
2013-06-17 21:15:00,77.0,75.5,29.82,SSW,198,0.0,0.0,95,0.00,,---,0.49,0.00,VWS V14.00,2013-06-18 02:15:00,
2013-06-17 21:20:00,76.9,75.4,29.83,SSW,198,0.0,0.0,95,0.00,,---,0.49,0.00,VWS V14.00,2013-06-18 02:20:00,
2013-06-17 21:25:00,76.8,75.3,29.83,SSW,198,0.0,0.0,95,0.00,,---,0.49,0.00,VWS V14.00,2013-06-18 02:25:00,
2013-06-17 21:30:00,76.7,75.2,29.83,SSW,198,0.0,0.0,95,0.00,,---,0.49,0.00,VWS V14.00,2013-06-18 02:30:00,
2013-06-17 21:35:00,76.7,75.2,29.83,SSW,198,0.0,0.0,95,0.00,,---,0.49,0.00,VWS V14.00,2013-06-18 02:35:00,
2013-06-17 21:40:00,76.5,75.0,29.83,SSW,198,0.0,0.0,95,0.00,,---,0.49,0.00,VWS V14.00,2013-06-18 02:40:00,
2013-06-17 21:45:00,76.4,74.9,29.84,SSW,198,0.0,0.0,95,0.00,,---,0.49,0.00,VWS V14.00,2013-06-18 02:45:00,
2013-06-17 21:50:00,76.3,74.8,29.84,SSW,198,0.0,0.0,95,0.00,,---,0.49,0.00,VWS V14.00,2013-06-18 02:50:00,
2013-06-17 21:55:00,76.3,74.8,29.84,SSW,198,0.0,0.0,95,0.00,,---,0.49,0.00,VWS V14.00,2013-06-18 02:55:00,
2013-06-17 22:00:00,76.2,74.7,29.84,SSW,198,0.0,0.0,95,0.00,,---,0.49,0.00,VWS V14.00,2013-06-18 03:00:00,
2013-06-17 22:05:00,76.1,74.6,29.84,SSW,198,0.0,0.0,95,0.00,,---,0.49,0.00,VWS V14.00,2013-06-18 03:05:00,
2013-06-17 22:10:00,76.0,74.5,29.83,SSW,198,0.0,0.0,95,0.00,,---,0.49,0.00,VWS V14.00,2013-06-18 03:10:00,
2013-06-17 22:15:00,75.8,74.3,29.83,SSW,198,0.0,0.0,95,0.00,,---,0.49,0.00,VWS V14.00,2013-06-18 03:15:00,
2013-06-17 22:20:00,75.7,74.2,29.83,SSW,198,0.0,0.0,95,0.00,,---,0.49,0.00,VWS V14.00,2013-06-18 03:20:00,
2013-06-17 22:25:00,75.4,73.9,29.83,SSW,198,0.0,0.0,95,0.00,,---,0.49,0.00,VWS V14.00,2013-06-18 03:25:00,
2013-06-17 22:30:00,75.3,73.8,29.83,SSW,198,0.0,0.0,95,0.00,,---,0.49,0.00,VWS V14.00,2013-06-18 03:30:00,
2013-06-17 22:35:00,75.1,73.6,29.83,SSW,198,0.0,0.0,95,0.00,,---,0.49,0.00,VWS V14.00,2013-06-18 03:35:00,
2013-06-17 22:40:00,75.1,73.6,29.83,SSW,198,0.0,0.0,95,0.00,,---,0.49,0.00,VWS V14.00,2013-06-18 03:40:00,
2013-06-17 22:45:00,75.1,73.6,29.83,SSW,198,0.0,0.0,95,0.00,,---,0.49,0.00,VWS V14.00,2013-06-18 03:45:00,
2013-06-17 22:50:00,75.0,73.5,29.83,SSW,198,0.0,0.0,95,0.00,,---,0.49,0.00,VWS V14.00,2013-06-18 03:50:00,
2013-06-17 22:55:00,75.0,73.5,29.82,SSW,198,0.0,0.0,95,0.00,,---,0.49,0.00,VWS V14.00,2013-06-18 03:55:00,
2013-06-17 23:00:00,74.9,73.7,29.82,SSW,198,0.0,0.0,96,0.00,,---,0.49,0.00,VWS V14.00,2013-06-18 04:00:00,
2013-06-17 23:01:00,74.9,73.4,29.82,SSW,198,0.0,0.0,95,0.00,,---,0.49,0.00,VWS V14.00,2013-06-18 04:01:00,
2013-06-17 23:06:00,74.6,73.1,29.82,SSW,198,0.0,0.0,95,0.00,,---,0.49,0.00,VWS V14.00,2013-06-18 04:06:00,
2013-06-17 23:11:00,74.3,72.8,29.82,SSW,198,0.0,0.0,95,0.00,,---,0.49,0.00,VWS V14.00,2013-06-18 04:11:00,
2013-06-17 23:16:00,74.3,72.8,29.82,SSW,198,0.0,0.0,95,0.00,,---,0.49,0.00,VWS V14.00,2013-06-18 04:16:00,
2013-06-17 23:21:00,74.3,72.8,29.82,SSW,198,0.0,0.0,95,0.00,,---,0.49,0.00,VWS V14.00,2013-06-18 04:21:00,
2013-06-17 23:26:00,74.3,72.8,29.82,SSW,198,0.0,0.0,95,0.00,,---,0.49,0.00,VWS V14.00,2013-06-18 04:26:00,
2013-06-17 23:30:00,74.2,72.7,29.82,SSW,198,0.0,0.0,95,0.00,,---,0.49,0.00,VWS V14.00,2013-06-18 04:30:00,
2013-06-17 23:31:00,74.3,73.1,29.82,SSW,198,0.0,0.0,96,0.00,,---,0.49,0.00,VWS V14.00,2013-06-18 04:31:00,
2013-06-17 23:36:00,74.4,73.2,29.82,SSW,198,0.0,0.0,96,0.00,,---,0.49,0.00,VWS V14.00,2013-06-18 04:36:00,
2013-06-17 23:41:00,74.4,73.2,29.82,SSW,198,0.0,0.0,96,0.00,,---,0.49,0.00,VWS V14.00,2013-06-18 04:41:00,
2013-06-17 23:46:00,74.4,73.2,29.82,SSW,198,0.0,0.0,96,0.00,,---,0.49,0.00,VWS V14.00,2013-06-18 04:46:00,
2013-06-17 23:51:00,74.4,73.2,29.82,SSW,198,0.0,0.0,96,0.00,,---,0.49,0.00,VWS V14.00,2013-06-18 04:51:00,
2013-06-17 23:56:00,74.3,73.1,29.82,SSW,198,0.0,0.0,96,0.00,,---,0.49,0.00,VWS V14.00,2013-06-18 04:56:00,